timestamp,surface_pressure_avg,surface_temp_avg,battery_voltage,lat,long
2024-01-23 00:09:00+00:00,278.4047,2.0,11.53,47.84626,-54.09684
2024-01-23 00:19:00+00:00,277.5598,2.0,11.53,47.84626,-54.09684
2024-01-23 00:29:00+00:00,272.4647,2.0,11.53,47.84626,-54.09684
2024-01-23 00:39:00+00:00,265.4464,2.0,11.53,47.84626,-54.09684
2024-01-23 00:49:00+00:00,262.2897,2.0,11.53,47.84626,-54.09684
2024-01-23 00:59:00+00:00,256.8847,2.0,11.53,47.84626,-54.09684
2024-01-23 01:09:00+00:00,247.7831,2.0,11.53,47.84626,-54.09684
2024-01-23 01:19:00+00:00,240.6681,2.0,11.53,47.84626,-54.09684
2024-01-23 01:29:00+00:00,237.7731,2.0,11.53,47.84626,-54.09684
2024-01-23 01:39:00+00:00,229.2065,2.0,11.53,47.84626,-54.09684
2024-01-23 01:49:00+00:00,224.2714,2.0,11.53,47.84626,-54.09684
2024-01-23 01:59:00+00:00,222.4931,2.0,11.53,47.84626,-54.09684
2024-01-23 02:09:00+00:00,219.5064,2.0,11.53,47.84626,-54.09684
2024-01-23 02:19:00+00:00,217.1364,2.0,11.53,47.84626,-54.09684
2024-01-23 02:29:00+00:00,216.5081,2.0,11.53,47.84626,-54.09684
2024-01-23 02:39:00+00:00,215.0181,2.0,11.53,47.84626,-54.09684
2024-01-23 02:49:00+00:00,213.7447,2.0,11.53,47.84626,-54.09684
2024-01-23 02:59:00+00:00,214.5014,2.0,11.53,47.84626,-54.09684
2024-01-23 03:09:00+00:00,212.4015,2.0,11.53,47.84626,-54.09684
2024-01-23 03:19:00+00:00,211.5315,2.0,11.53,47.84626,-54.09684
2024-01-23 03:29:00+00:00,211.4231,2.0,11.53,47.84626,-54.09684
2024-01-23 03:39:00+00:00,212.6165,2.0,11.53,47.84626,-54.09684
2024-01-23 03:49:00+00:00,214.5615,2.0,11.53,47.84626,-54.09684
2024-01-23 03:59:00+00:00,214.3614,2.0,11.53,47.84626,-54.09684
2024-01-23 04:09:00+00:00,215.4965,2.0,11.53,47.84626,-54.09684
2024-01-23 04:19:01+00:00,220.6714,2.0,11.53,47.84626,-54.09684
2024-01-23 04:29:01+00:00,222.9297,2.0,11.53,47.84626,-54.09684
2024-01-23 04:39:01+00:00,226.9564,2.0,11.53,47.84626,-54.09684
2024-01-23 04:49:01+00:00,233.0047,2.0,11.53,47.84626,-54.09684
2024-01-23 04:59:01+00:00,230.3664,1.95,11.53,47.84626,-54.09684
2024-01-23 05:09:01+00:00,223.6948,1.9,11.53,47.84626,-54.09684
2024-01-23 05:19:00+00:00,228.5048,1.9,11.53,47.84626,-54.09684
2024-01-23 05:29:00+00:00,236.0548,1.9,11.53,47.84626,-54.09684
2024-01-23 05:39:00+00:00,236.4364,1.9,11.53,47.84626,-54.09684
2024-01-23 05:49:00+00:00,240.3481,1.89,11.53,47.84626,-54.09684
2024-01-23 05:59:00+00:00,247.7248,1.89,11.53,47.84626,-54.09684
2024-01-23 06:09:00+00:00,251.563,1.9,11.53,47.84626,-54.09684
2024-01-23 06:19:00+00:00,256.0181,1.9,11.53,47.84626,-54.09684
2024-01-23 06:29:00+00:00,264.5564,1.9,11.53,47.84626,-54.09684
2024-01-23 06:39:00+00:00,272.2681,1.98,11.53,47.84626,-54.09684
2024-01-23 06:49:00+00:00,275.7764,2.0,11.53,47.84626,-54.09684
2024-01-23 06:59:00+00:00,277.8047,2.09,11.53,47.84626,-54.09684
2024-01-23 07:09:00+00:00,280.7814,2.19,11.53,47.84626,-54.09684
2024-01-23 07:19:00+00:00,287.3264,2.1,11.53,47.84626,-54.09684
2024-01-23 07:29:00+00:00,293.8314,2.1,11.53,47.84626,-54.09684
2024-01-23 07:39:00+00:00,294.1113,2.13,11.53,47.84626,-54.09684
2024-01-23 07:49:00+00:00,297.918,2.17,11.53,47.84626,-54.09684
2024-01-23 07:59:00+00:00,305.7964,2.15,11.53,47.84626,-54.09684
2024-01-23 08:09:00+00:00,309.4348,2.16,11.53,47.84626,-54.09684
2024-01-23 08:19:00+00:00,310.543,2.16,11.53,47.84626,-54.09684
2024-01-23 08:29:00+00:00,318.248,2.17,11.53,47.84626,-54.09684
2024-01-23 08:39:00+00:00,321.8297,2.17,11.53,47.84626,-54.09684
2024-01-23 08:49:00+00:00,321.1414,2.17,11.53,47.84626,-54.09684
2024-01-23 08:59:00+00:00,324.9563,2.19,11.53,47.84626,-54.09684
2024-01-23 09:09:00+00:00,332.2297,2.18,11.53,47.84626,-54.09684
2024-01-23 09:19:00+00:00,336.1229,2.18,11.53,47.84626,-54.09684
2024-01-23 09:29:00+00:00,339.24300000000005,2.2,11.53,47.84626,-54.09684
2024-01-23 09:39:00+00:00,342.4279,2.2,11.53,47.84626,-54.09684
2024-01-23 09:49:00+00:00,345.0846,2.2,11.53,47.84626,-54.09684
2024-01-23 09:59:00+00:00,347.023,2.2,11.53,47.84626,-54.09684
2024-01-23 10:09:00+00:00,349.9413,2.2,11.53,47.84626,-54.09684
2024-01-23 10:19:00+00:00,356.2563,2.2,11.53,47.84626,-54.09684
2024-01-23 10:29:00+00:00,361.1979,2.2,11.53,47.84626,-54.09684
2024-01-23 10:39:00+00:00,360.6896,2.2,11.53,47.84626,-54.09684
2024-01-23 10:49:00+00:00,358.403,2.2,11.53,47.84626,-54.09684
2024-01-23 10:59:00+00:00,358.2679,2.2,11.53,47.84626,-54.09684
2024-01-23 11:09:00+00:00,357.8096,2.2,11.53,47.84626,-54.09684
2024-01-23 11:19:00+00:00,349.30800000000005,2.2,11.53,47.84626,-54.09684
2024-01-23 11:29:00+00:00,342.4463,2.2,11.53,47.84626,-54.09684
2024-01-23 11:39:00+00:00,338.5397,2.2,11.53,47.84626,-54.09684
2024-01-23 11:49:00+00:00,336.6579,2.2,11.53,47.84626,-54.09684
2024-01-23 11:59:00+00:00,327.0712,2.2,11.53,47.84626,-54.09684
2024-01-23 12:09:00+00:00,322.098,2.2,11.53,47.84626,-54.09684
2024-01-23 12:19:00+00:00,325.6397,2.2,11.53,47.84626,-54.09684
2024-01-23 12:29:00+00:00,319.558,2.2,11.53,47.84626,-54.09684
2024-01-23 12:39:00+00:00,306.918,2.2,11.53,47.84626,-54.09684
2024-01-23 12:49:00+00:00,300.4714,2.2,11.53,47.84626,-54.09684
2024-01-23 12:59:00+00:00,295.9664,2.2,11.53,47.84626,-54.09684
2024-01-23 13:09:00+00:00,288.3964,2.2,11.53,47.84626,-54.09684
2024-01-23 13:19:00+00:00,279.7448,2.2,11.53,47.84626,-54.09684
2024-01-23 13:29:00+00:00,274.9564,2.17,11.53,47.84626,-54.09684
2024-01-23 13:39:00+00:00,267.3781,2.19,11.53,47.84626,-54.09684
2024-01-23 13:49:00+00:00,260.8448,2.2,11.53,47.84626,-54.09684
2024-01-23 13:59:00+00:00,256.7614,2.2,11.53,47.84626,-54.09684
2024-01-23 14:09:00+00:00,256.3147,2.17,11.53,47.84626,-54.09684
2024-01-23 14:19:00+00:00,248.7148,2.18,11.53,47.84626,-54.09684
2024-01-23 14:29:00+00:00,242.2448,2.17,11.53,47.84626,-54.09684
2024-01-23 14:39:00+00:00,237.3365,2.13,11.53,47.84626,-54.09684
2024-01-23 14:49:00+00:00,234.3231,2.12,11.53,47.84626,-54.09684
2024-01-23 14:59:00+00:00,226.9265,2.12,11.53,47.84626,-54.09684
2024-01-23 15:09:00+00:00,222.3264,2.14,11.53,47.84626,-54.09684
2024-01-23 15:19:00+00:00,223.3031,2.1,11.53,47.84626,-54.09684
2024-01-23 15:29:00+00:00,222.4731,2.1,11.53,47.84626,-54.09684
2024-01-23 15:39:00+00:00,218.2315,2.1,11.53,47.84626,-54.09684
2024-01-23 15:49:00+00:00,219.9198,2.1,11.53,47.84626,-54.09684
2024-01-23 15:59:00+00:00,223.9764,2.1,11.53,47.84626,-54.09684
2024-01-23 16:09:00+00:00,222.8665,2.1,11.53,47.84626,-54.09684
2024-01-23 16:19:00+00:00,219.1298,2.1,11.53,47.84626,-54.09684
2024-01-23 16:29:00+00:00,220.6797,2.1,11.53,47.84626,-54.09684
2024-01-23 16:39:00+00:00,224.3781,2.1,11.53,47.84626,-54.09684
2024-01-23 16:49:00+00:00,220.2397,2.1,11.53,47.84626,-54.09684
2024-01-23 16:59:00+00:00,217.4881,2.1,11.53,47.84626,-54.09684
2024-01-23 17:09:00+00:00,221.2548,2.1,11.53,47.84626,-54.09684
2024-01-23 17:19:00+00:00,222.1248,2.1,11.61,47.84626,-54.09684
2024-01-23 17:29:00+00:00,217.1398,2.1,11.61,47.84626,-54.09684
2024-01-23 17:39:00+00:00,216.5681,2.1,11.61,47.84626,-54.09684
2024-01-23 17:49:00+00:00,223.5697,2.13,11.61,47.84626,-54.09684
2024-01-23 17:59:00+00:00,226.6714,2.14,11.61,47.84626,-54.09684
2024-01-23 18:09:00+00:00,224.5115,2.15,11.61,47.84626,-54.09684
2024-01-23 18:19:00+00:00,226.8748,2.16,11.77,47.84626,-54.09684
2024-01-23 18:29:00+00:00,230.6914,2.17,11.77,47.84626,-54.09684
2024-01-23 18:39:00+00:00,231.9881,2.16,11.77,47.84626,-54.09684
2024-01-23 18:49:00+00:00,231.2081,2.14,11.77,47.84626,-54.09684
2024-01-23 18:59:00+00:00,233.9314,2.13,11.77,47.84626,-54.09684
2024-01-23 19:09:00+00:00,239.1447,2.14,11.77,47.84626,-54.09684
2024-01-23 19:19:00+00:00,240.0414,2.14,11.77,47.84626,-54.09684
2024-01-23 19:29:00+00:00,241.9281,2.12,11.77,47.84626,-54.09684
2024-01-23 19:39:00+00:00,249.0264,2.14,11.77,47.84626,-54.09684
2024-01-23 19:49:00+00:00,252.8031,2.14,11.77,47.84626,-54.09684
2024-01-23 19:59:00+00:00,255.7214,2.1,11.77,47.84626,-54.09684
2024-01-23 20:09:00+00:00,260.8014,2.12,11.77,47.84626,-54.09684
2024-01-23 20:19:00+00:00,266.9781,2.14,11.61,47.84626,-54.09684
2024-01-23 20:29:00+00:00,267.4748,2.1,11.61,47.84626,-54.09684
2024-01-23 20:39:00+00:00,272.2514,2.1,11.61,47.84626,-54.09684
2024-01-23 20:49:00+00:00,282.1464,2.1,11.61,47.84626,-54.09684
2024-01-23 20:59:00+00:00,287.9397,2.1,11.61,47.84626,-54.09684
2024-01-23 21:09:00+00:00,291.9614,2.06,11.61,47.84626,-54.09684
2024-01-23 21:19:00+00:00,298.0047,2.0,11.53,47.84626,-54.09684
2024-01-23 21:29:00+00:00,303.8697,2.0,11.53,47.84626,-54.09684
2024-01-23 21:39:00+00:00,308.0096,1.99,11.53,47.84626,-54.09684
2024-01-23 21:49:00+00:00,313.0197,1.99,11.53,47.84626,-54.09684
2024-01-23 21:59:00+00:00,317.368,1.9,11.53,47.84626,-54.09684
2024-01-23 22:09:00+00:00,318.7279,1.9,11.53,47.84626,-54.09684
2024-01-23 22:19:00+00:00,322.4963,1.9,11.53,47.84626,-54.09684
2024-01-23 22:29:00+00:00,325.163,1.9,11.53,47.84626,-54.09684
2024-01-23 22:39:00+00:00,325.6097,1.9,11.53,47.84626,-54.09684
2024-01-23 22:49:00+00:00,324.7812,1.9,11.53,47.84626,-54.09684
2024-01-23 22:59:00+00:00,326.138,1.89,11.53,47.84626,-54.09684
2024-01-23 23:09:00+00:00,328.0764,1.89,11.53,47.84626,-54.09684
2024-01-23 23:19:00+00:00,327.058,1.89,11.53,47.84626,-54.09684
2024-01-23 23:29:00+00:00,322.3763,1.88,11.53,47.84626,-54.09684
2024-01-23 23:39:00+00:00,315.8163,1.88,11.53,47.84626,-54.09684
2024-01-23 23:49:00+00:00,308.9896,1.84,11.53,47.84626,-54.09684
2024-01-23 23:59:00+00:00,307.3097,1.8,11.53,47.84626,-54.09684
